Погода в Рузаевке

Погода в Рузаевке : погода сейчас, прогноз погоды и архив. Всё, что Вы хотите узнать о погоде в Рузаевке!

Поиск расширенной информации на нашем сайте:

Другие новости

Новости СМИ2

Главная страница сайта

Новости сайта

03.07.2017

Напоминаем, что на нашем специализированном сайте Метеоцентр.Азия вы можете получить высокодетализированные автоматические прогнозы погоды по пунктам России, СНГ и мира в авиационном формате (включающие направление и скорость ветра, видимость, явления погоды, количество и форму облачности, нижнюю и верхнюю границу облачности).

Рекомендуем: Самоделкин замена и ремонт кран.

Погода в Рузаевке - сегодня

Время (UTC), дата Ветер
(°,м/с) 
Видим.   Явления Облачность Т
(°С)
Тd
(°С)
f(%) Тe
(°С)
Pmin
(гПа)
dP
(гПа)
Po
(мм)
O2
(г/м3)
Тmin Tmax R s Состояние
почвы
18 14.10.17 тихо ()   н/о    6/0 средняя 
[Ac und]
+6.2 -0.6 62 +6  1010.6  -0.4  737  291    +12.7       
21 14.10.17 тихо ()   н/о    4/0 средняя 
[Ac trans]
+3.5 -1.1 72 +4  1010.2  -0.6  737  293           
00 15.10.17 тихо ()   н/о    4/0 средняя, верхняя 
[Ac trans|Ci fib]
+0.2 -2.5 82 1010.8  0.2  737  297           
03 15.10.17 тихо ()   20000 м    4/0 средняя, верхняя 
[Ac trans|Ci fib]
-1.2 -3.2 86 -1  1011.5  0.6  737  299           
06 15.10.17 180 (Ю) 20000 м    6/0 средняя 
[Ac und]
+6.8 -0.7 59 +7  1011  0.3  738  290  -1.7         
09 15.10.17 тихо ()   20000 м    4/0 средняя 
[Ac trans]
+11.3 -1.6 41 +11  1010.8  0.2  738  286           
12 15.10.17 160 (Ю) 20000 м    ясно 
+10.7 -2.2 40 +11  1011.5  0.6  738  286           
15 15.10.17 тихо ()   н/о    ясно 
+0.9 -4.3 68 +1  1013.6  1.1  739  297    +11.8       
18 15.10.17 тихо ()   н/о    ясно 
-3.3 -6.1 81 -3  1014.7  0.6  740  302    +11.8       
21 15.10.17 тихо ()   н/о    ясно 
+0.9 -4.3 68 +1  1013.6  1.1  739  297    +11.8       
00 16.10.17 тихо ()   н/о    ясно 
-6.6 -8.6 86 -7  1016  0.7  740  307           
03 16.10.17 тихо ()   20000 м    6/0 верхняя 
[Ci sp]
-4.7 -7.1 83 -5  1016.5  0.7  741  304           
06 16.10.17 140 (ЮВ) 20000 м    6/0 верхняя 
[Ci sp]
+10.1 -1 46 +9  1015.5  0.6  741  288  -7.1         
09 16.10.17 160 (Ю) 20000 м    8/0 средняя, верхняя 
[Ac trans|Ci sp]
+14.3 -0.2 37 +14  1014.9  -0.2  741  284           
12 16.10.17 140 (ЮВ) 20000 м    9/0 средняя, верхняя 
[Ac trans|Cs]
+12.3 +0 43 +11  1015.3  0.2  741  286           
15 16.10.17 140 (ЮВ) н/о    6/0 средняя 
[Ac und]
+6.5 -0.5 61 +6  1016.8  0.9  742  292    +14.8       
18 16.10.17 140 (ЮВ) н/о    4/0 средняя 
[Ac trans]
+7.8 -1 54 +6  1016.4  -0.3  742  291    +14.8       
21 16.10.17 180 (Ю) 10  н/о    ясно 
+7.3 -2.8 49 +4  1016  -0.4  741  291           
00 17.10.17 180 (Ю) н/о    ясно 
+6.2 -1.6 57 +6  1017.4  1.2  742  293           
03 17.10.17 110 (В) 20000 м    4/0 средняя, верхняя 
[Ac trans|Ci fib]
+6.4 -1.3 58 +4  1014.6  -2.7  740  292           
06 17.10.17 140 (ЮВ) 10  20000 м    3/0 средняя 
[Ac trans]
+13.7 -0.5 38 +12  1013  -0.8  740  284  +5.7         
09 17.10.17 140 (ЮВ) 14-16{16}  20000 м  пыльный позёмок  3/0 средняя 
[Ac trans]
+17.4 -0.4 30 +16  1011.1  -1.5  739  280           
12 17.10.17 110 (В) 14-16{16}  20000 м    6/0 средняя, верхняя 
[Ac trans|Ci fib]
+14.7 +0.9 39 +13  1009.6  -1.7  737  282           
15 17.10.17 140 (ЮВ) 10{16}  н/о    8/4 600 м средняя 
[Sc|Ac trans]
+12.5 +2.2 49 +11  1009.5  -0.3  737  284    +17.9       
18 17.10.17 140 (ЮВ) 14{16}  н/о    6/3 600 м средняя 
[Sc|Ac trans]
+9 +2.2 62 +6  1007.8  -2  736  287    +17.9       
Время (UTC), дата Ветер
(°,м/с) 
Видим.   Явления Облачность Т
(°С)
Тd
(°С)
f(%) Тe
(°С)
Pmin
(гПа)
dP
(гПа)
Po
(мм)
O2
(г/м3)
Тmin Tmax R s Состояние
почвы

Для получения пояснительной информации подведите курсор к названию столбца.

ПОГОДА в Рузаевке - архив

Всё, что Вы хотите узнать о погоде в Рузаевке - удобно и подробно!

Выберите нужную дату (начиная с 1 января 2015* года) и нажмите кнопку "Найти".
Будут отображены архивные сводки погоды по пункту Рузаевка, начиная с указанной даты.


Отображать данные в формате CSV (для использования в таблицах Excel)


Внимание! Наш архив погоды предназначен исключительно для личного некоммерческого использования в познавательных целях. Если Вам необходимы официальные справки о состоянии погоды (для производственных, юридических, коммерческих и т.п. целей), обращайтесь в органы Росгидромета.

*Примечание: данная дата относится к архиву по метеостанциям СССР (Россия, СНГ, Балтия).
Архив по метеостанциям Зарубежной Европы и Азии (кроме Китая) хранится 10 дней, по другим регионам земного шара (Китай, Африка, Америка, Австралия, Океания) - 1 день.

Рузаевка - район местоположения метеостанции


Название, широта, долгота, высота метеостанции:
Рузаевка 52.8°ш. 67°д. 227 м над ур. моря [Казахстан]

Дополнительная информация

В oтличие oт бoльшинства пoгoдных сайтoв мы публикуем пoдрoбную метеoинфoрмацию в детальнoм прoфессиoнальнoм фoрмате.

Характеристики температуры и влажнoсти вoздуха измеряются на высoте 2 м в тени вдали oт зданий и деревьев.
Скoрoсть ветра измеряется на высoте 10 м (на урoвне рoста челoвека скoрoсть ветра ниже в 1.5-2 раза). Если метеoстанция нахoдится в гoрoде или в лесу, тo скoрoсть ветра занижена на 2-4 м/с пo сравнению с oткрытым местoм. Скoрoсть ветра над акватoриями крупных рек и oзёр, а также на вершинах хoлмoв на 2-5 м/с выше, чем в oбычных услoвиях.
Атмoсфернoе давление в разных тoчках местнoсти мoжет значительнo oтличаться oт давления на метеoстанции, в зависимoсти oт услoвий рельефа (при пoдъёме на 10 м давление пoнижается примернo на 1 мм рт.ст.).